Location: Peach Mountain Observatory
(42.3967°N, 83.9367°W)
Time: 13:47:25
(UTC-04:00)

deb Explorer IX - Pass Details

Date: 25 January 2020
Orbit: 547 x 1100 km, 38.8° (Epoch: 04 April)

Event Time Altitude Azimuth Distance (km) Brightness Sun altitude
Rises 04:38:59 0° 275° (W) 3,862 - -36.3°
Reaches altitude 10° 04:42:56 10° 255° (WSW) 2,839 - -35.6°
Maximum altitude 04:46:54 16° 220° (SW) 2,324 - -34.9°
Drops below altitude 10° 04:50:38 10° 184° (S) 2,639 - -34.2°
Exits shadow 04:52:31 - 172° (S) 3,044 ? -33.8°
Sets 04:54:08 0° 164° (SSE) 3,464 ? -33.5°
